Time,TemperatureF,DewpointF,PressureIn,WindDirection,WindDirectionDegrees,WindSpeedMPH,WindSpeedGustMPH,Humidity,HourlyPrecipIn,Conditions,Clouds,dailyrainin,SoftwareType,DateUTC
2013-02-19 00:02:00,43.0,-99.9,29.78,SE,142,2.0,3.0,-999,-99.99,,,-99.99,,2013-02-19 08:02:00,
2013-02-19 00:11:00,43.0,-99.9,29.77,SE,125,2.0,2.0,-999,-99.99,,,-99.99,,2013-02-19 08:11:00,
2013-02-19 00:22:00,43.0,-99.9,29.77,SE,142,2.0,2.0,-999,-99.99,,,-99.99,,2013-02-19 08:22:00,
2013-02-19 00:32:00,43.0,-99.9,29.77,WSW,256,-999.0,1.0,-999,-99.99,,,-99.99,,2013-02-19 08:32:00,
2013-02-19 00:42:00,44.0,-99.9,29.77,SW,216,-999.0,2.0,-999,-99.99,,,-99.99,,2013-02-19 08:42:00,
2013-02-19 00:52:00,44.0,-99.9,29.77,NW,325,1.0,2.0,-999,-99.99,,,-99.99,,2013-02-19 08:52:00,
2013-02-19 01:02:00,44.0,-99.9,29.77,NW,317,2.0,3.0,-999,-99.99,,,-99.99,,2013-02-19 09:02:00,
2013-02-19 01:11:00,43.0,-99.9,29.76,NW,308,3.0,4.0,-999,-99.99,,,-99.99,,2013-02-19 09:11:00,
2013-02-19 01:22:00,43.0,-99.9,29.76,NW,306,3.0,3.0,-999,-99.99,,,-99.99,,2013-02-19 09:22:00,
2013-02-19 01:32:00,43.0,-99.9,29.76,NW,326,5.0,5.0,-999,-99.99,,,-99.99,,2013-02-19 09:32:00,
2013-02-19 01:42:00,43.0,-99.9,29.75,NW,313,4.0,5.0,-999,-99.99,,,-99.99,,2013-02-19 09:42:00,
2013-02-19 01:53:00,43.0,-99.9,29.75,NW,313,5.0,5.0,-999,-99.99,,,-99.99,,2013-02-19 09:53:00,
2013-02-19 02:02:00,43.0,-99.9,29.75,NW,316,2.0,4.0,-999,-99.99,,,-99.99,,2013-02-19 10:02:00,
2013-02-19 02:11:00,43.0,-99.9,29.75,NW,304,3.0,5.0,-999,-99.99,,,-99.99,,2013-02-19 10:11:00,
2013-02-19 02:22:00,42.0,-99.9,29.75,SE,143,-999.0,4.0,-999,-99.99,,,-99.99,,2013-02-19 10:22:00,
2013-02-19 02:32:00,42.0,-99.9,29.75,ESE,117,4.0,6.0,-999,-99.99,,,-99.99,,2013-02-19 10:32:00,
2013-02-19 02:42:00,42.0,-99.9,29.75,SE,129,3.0,6.0,-999,-99.99,,,-99.99,,2013-02-19 10:42:00,
2013-02-19 02:52:00,42.0,-99.9,29.75,ESE,121,3.0,5.0,-999,-99.99,,,-99.99,,2013-02-19 10:52:00,
2013-02-19 03:02:00,42.0,-99.9,29.75,East,99,3.0,4.0,-999,-99.99,,,-99.99,,2013-02-19 11:02:00,
2013-02-19 03:12:00,42.0,-99.9,29.75,SE,127,3.0,4.0,-999,-99.99,,,-99.99,,2013-02-19 11:12:00,
2013-02-19 03:22:00,42.0,-99.9,29.75,SSE,150,0.0,3.0,-999,-99.99,,,-99.99,,2013-02-19 11:22:00,
2013-02-19 03:32:00,42.0,-99.9,29.75,NW,308,1.0,2.0,-999,-99.99,,,-99.99,,2013-02-19 11:32:00,
2013-02-19 03:42:00,42.0,-99.9,29.75,WSW,253,3.0,3.0,-999,-99.99,,,-99.99,,2013-02-19 11:42:00,
2013-02-19 03:52:00,42.0,-99.9,29.75,WNW,298,4.0,4.0,-999,-99.99,,,-99.99,,2013-02-19 11:52:00,
2013-02-19 04:02:00,42.0,-99.9,29.75,NW,305,4.0,4.0,-999,-99.99,,,-99.99,,2013-02-19 12:02:00,
2013-02-19 04:12:00,42.0,-99.9,29.75,NW,307,8.0,9.0,-999,-99.99,,,-99.99,,2013-02-19 12:12:00,
2013-02-19 04:22:00,42.0,-99.9,29.75,NNW,341,5.0,8.0,-999,-99.99,,,-99.99,,2013-02-19 12:22:00,
2013-02-19 04:33:00,42.0,-99.9,29.75,NNW,336,6.0,9.0,-999,-99.99,,,-99.99,,2013-02-19 12:33:00,
2013-02-19 04:42:00,42.0,-99.9,29.75,NNW,330,6.0,8.0,-999,-99.99,,,-99.99,,2013-02-19 12:42:00,
2013-02-19 04:53:00,42.0,-99.9,29.75,NNW,328,6.0,9.0,-999,-99.99,,,-99.99,,2013-02-19 12:53:00,
2013-02-19 05:02:00,42.0,-99.9,29.75,NW,313,6.0,7.0,-999,-99.99,,,-99.99,,2013-02-19 13:02:00,
2013-02-19 05:11:00,41.0,-99.9,29.75,NW,317,7.0,8.0,-999,-99.99,,,-99.99,,2013-02-19 13:11:00,
2013-02-19 05:22:00,41.0,-99.9,29.76,NW,311,6.0,8.0,-999,-99.99,,,-99.99,,2013-02-19 13:22:00,
2013-02-19 05:32:00,42.0,-99.9,29.76,NW,315,4.0,6.0,-999,-99.99,,,-99.99,,2013-02-19 13:32:00,
2013-02-19 05:42:00,42.0,-99.9,29.76,NW,320,3.0,6.0,-999,-99.99,,,-99.99,,2013-02-19 13:42:00,
2013-02-19 05:52:00,42.0,-99.9,29.76,NNW,340,1.0,6.0,-999,-99.99,,,-99.99,,2013-02-19 13:52:00,
2013-02-19 06:02:00,42.0,-99.9,29.77,NNW,339,4.0,7.0,-999,-99.99,,,-99.99,,2013-02-19 14:02:00,
2013-02-19 06:12:00,42.0,-99.9,29.77,NNW,336,6.0,8.0,-999,-99.99,,,-99.99,,2013-02-19 14:12:00,
2013-02-19 06:22:00,42.0,-99.9,29.77,NNW,331,3.0,7.0,-999,-99.99,,,-99.99,,2013-02-19 14:22:00,
2013-02-19 06:33:00,42.0,-99.9,29.77,NNW,343,3.0,6.0,-999,-99.99,,,-99.99,,2013-02-19 14:33:00,
2013-02-19 06:42:00,42.0,-99.9,29.77,NW,318,6.0,8.0,-999,-99.99,,,-99.99,,2013-02-19 14:42:00,
2013-02-19 06:52:00,42.0,-99.9,29.77,NNW,329,6.0,8.0,-999,-99.99,,,-99.99,,2013-02-19 14:52:00,
2013-02-19 07:02:00,42.0,-99.9,29.78,NNW,338,5.0,7.0,-999,-99.99,,,-99.99,,2013-02-19 15:02:00,
2013-02-19 07:11:00,42.0,-99.9,29.78,NW,315,4.0,7.0,-999,-99.99,,,-99.99,,2013-02-19 15:11:00,
2013-02-19 07:22:00,42.0,-99.9,29.78,NNW,343,4.0,7.0,-999,-99.99,,,-99.99,,2013-02-19 15:22:00,
2013-02-19 07:32:00,43.0,-99.9,29.78,NNW,341,2.0,7.0,-999,-99.99,,,-99.99,,2013-02-19 15:32:00,
2013-02-19 07:42:00,42.0,-99.9,29.78,NW,314,5.0,6.0,-999,-99.99,,,-99.99,,2013-02-19 15:42:00,
2013-02-19 07:52:00,42.0,-99.9,29.78,NW,322,5.0,8.0,-999,-99.99,,,-99.99,,2013-02-19 15:52:00,
2013-02-19 08:02:00,43.0,-99.9,29.78,NNW,336,5.0,9.0,-999,-99.99,,,-99.99,,2013-02-19 16:02:00,
2013-02-19 08:12:00,43.0,-99.9,29.78,NNW,343,3.0,8.0,-999,-99.99,,,-99.99,,2013-02-19 16:12:00,
2013-02-19 08:22:00,43.0,-99.9,29.78,NNW,345,3.0,5.0,-999,-99.99,,,-99.99,,2013-02-19 16:22:00,
2013-02-19 08:32:00,43.0,-99.9,29.79,NNW,327,5.0,7.0,-999,-99.99,,,-99.99,,2013-02-19 16:32:00,
2013-02-19 08:42:00,43.0,-99.9,29.79,NNE,14,2.0,6.0,-999,-99.99,,,-99.99,,2013-02-19 16:42:00,
2013-02-19 08:52:00,43.0,-99.9,29.80,NNW,346,8.0,11.0,-999,-99.99,,,-99.99,,2013-02-19 16:52:00,
2013-02-19 09:01:00,43.0,-99.9,29.80,NNW,348,4.0,6.0,-999,-99.99,,,-99.99,,2013-02-19 17:01:00,
2013-02-19 09:11:00,43.0,-99.9,29.80,NW,318,2.0,6.0,-999,-99.99,,,-99.99,,2013-02-19 17:11:00,
2013-02-19 09:21:00,44.0,-99.9,29.81,WNW,295,1.0,3.0,-999,-99.99,,,-99.99,,2013-02-19 17:21:00,
2013-02-19 09:32:00,44.0,-99.9,29.81,WNW,303,4.0,8.0,-999,-99.99,,,-99.99,,2013-02-19 17:32:00,
2013-02-19 09:42:00,44.0,-99.9,29.81,NNW,335,6.0,11.0,-999,-99.99,,,-99.99,,2013-02-19 17:42:00,
2013-02-19 09:52:00,44.0,-99.9,29.81,North,357,4.0,8.0,-999,-99.99,,,-99.99,,2013-02-19 17:52:00,
2013-02-19 10:02:00,45.0,-99.9,29.81,North,350,1.0,5.0,-999,-99.99,,,-99.99,,2013-02-19 18:02:00,
2013-02-19 10:11:00,45.0,-99.9,29.82,NNW,330,7.0,12.0,-999,-99.99,,,-99.99,,2013-02-19 18:11:00,
2013-02-19 10:22:00,45.0,-99.9,29.82,NW,325,9.0,12.0,-999,-99.99,,,-99.99,,2013-02-19 18:22:00,
2013-02-19 10:32:00,45.0,-99.9,29.82,NNW,336,7.0,11.0,-999,-99.99,,,-99.99,,2013-02-19 18:32:00,
2013-02-19 10:42:00,45.0,-99.9,29.82,NNW,344,4.0,8.0,-999,-99.99,,,-99.99,,2013-02-19 18:42:00,
2013-02-19 10:52:00,45.0,-99.9,29.82,NNW,345,6.0,9.0,-999,-99.99,,,-99.99,,2013-02-19 18:52:00,
2013-02-19 11:01:00,46.0,-99.9,29.82,NNW,330,3.0,9.0,-999,-99.99,,,-99.99,,2013-02-19 19:01:00,
2013-02-19 11:11:00,46.0,-99.9,29.83,NW,315,7.0,12.0,-999,-99.99,,,-99.99,,2013-02-19 19:11:00,
2013-02-19 11:22:00,45.0,-99.9,29.83,NNW,331,11.0,13.0,-999,-99.99,,,-99.99,,2013-02-19 19:22:00,
2013-02-19 11:32:00,46.0,-99.9,29.83,NNE,13,2.0,7.0,-999,-99.99,,,-99.99,,2013-02-19 19:32:00,
2013-02-19 11:42:00,46.0,-99.9,29.83,NW,312,3.0,6.0,-999,-99.99,,,-99.99,,2013-02-19 19:42:00,
2013-02-19 11:52:00,47.0,-99.9,29.83,NW,309,3.0,6.0,-999,-99.99,,,-99.99,,2013-02-19 19:52:00,
2013-02-19 12:02:00,47.0,-99.9,29.83,NW,306,3.0,9.0,-999,-99.99,,,-99.99,,2013-02-19 20:02:00,
2013-02-19 12:12:00,47.0,-99.9,29.83,WNW,289,3.0,10.0,-999,-99.99,,,-99.99,,2013-02-19 20:12:00,
2013-02-19 12:22:00,48.0,-99.9,29.83,NW,308,7.0,13.0,-999,-99.99,,,-99.99,,2013-02-19 20:22:00,
2013-02-19 12:32:00,48.0,-99.9,29.83,NE,34,1.0,8.0,-999,-99.99,,,-99.99,,2013-02-19 20:32:00,
2013-02-19 12:42:00,48.0,-99.9,29.83,NNW,346,4.0,9.0,-999,-99.99,,,-99.99,,2013-02-19 20:42:00,
2013-02-19 12:52:00,48.0,-99.9,29.83,NW,312,10.0,12.0,-999,-99.99,,,-99.99,,2013-02-19 20:52:00,
2013-02-19 13:02:00,48.0,-99.9,29.83,NW,323,6.0,14.0,-999,-99.99,,,-99.99,,2013-02-19 21:02:00,
2013-02-19 13:11:00,48.0,-99.9,29.84,NW,325,12.0,16.0,-999,-99.99,,,-99.99,,2013-02-19 21:11:00,
2013-02-19 13:22:00,48.0,-99.9,29.84,NNW,345,3.0,15.0,-999,-99.99,,,-99.99,,2013-02-19 21:22:00,
2013-02-19 13:32:00,48.0,-99.9,29.84,NW,320,3.0,10.0,-999,-99.99,,,-99.99,,2013-02-19 21:32:00,
2013-02-19 13:42:00,48.0,-99.9,29.84,NW,322,11.0,17.0,-999,-99.99,,,-99.99,,2013-02-19 21:42:00,
2013-02-19 13:52:00,48.0,-99.9,29.84,NW,326,13.0,16.0,-999,-99.99,,,-99.99,,2013-02-19 21:52:00,
2013-02-19 14:02:00,48.0,-99.9,29.84,NNW,328,11.0,15.0,-999,-99.99,,,-99.99,,2013-02-19 22:02:00,
2013-02-19 14:11:00,49.0,-99.9,29.85,NNW,344,7.0,12.0,-999,-99.99,,,-99.99,,2013-02-19 22:11:00,
2013-02-19 14:22:00,49.0,-99.9,29.85,NNW,344,7.0,12.0,-999,-99.99,,,-99.99,,2013-02-19 22:22:00,
2013-02-19 14:32:00,49.0,-99.9,29.85,NNW,344,7.0,12.0,-999,-99.99,,,-99.99,,2013-02-19 22:32:00,
2013-02-19 14:42:00,49.0,-99.9,29.85,NNW,344,7.0,12.0,-999,-99.99,,,-99.99,,2013-02-19 22:42:00,
2013-02-19 14:52:00,48.0,-99.9,29.85,NNW,342,2.0,13.0,-999,-99.99,,,-99.99,,2013-02-19 22:52:00,
2013-02-19 16:42:00,48.0,-99.9,29.88,NNW,334,8.0,13.0,-999,-99.99,,,-99.99,,2013-02-20 00:42:00,
2013-02-19 16:52:00,48.0,-99.9,29.88,NNW,330,11.0,15.0,-999,-99.99,,,-99.99,,2013-02-20 00:52:00,
2013-02-19 17:02:00,48.0,-99.9,29.88,North,351,5.0,10.0,-999,-99.99,,,-99.99,,2013-02-20 01:02:00,
2013-02-19 17:11:00,48.0,-99.9,29.88,NNW,332,8.0,15.0,-999,-99.99,,,-99.99,,2013-02-20 01:11:00,
2013-02-19 17:22:00,47.0,-99.9,29.88,NNW,327,9.0,16.0,-999,-99.99,,,-99.99,,2013-02-20 01:22:00,
2013-02-19 17:32:00,47.0,-99.9,29.88,NNW,335,6.0,13.0,-999,-99.99,,,-99.99,,2013-02-20 01:32:00,
2013-02-19 17:42:00,47.0,-99.9,29.88,NNW,330,4.0,11.0,-999,-99.99,,,-99.99,,2013-02-20 01:42:00,
2013-02-19 17:52:00,47.0,-99.9,29.89,NNW,335,4.0,12.0,-999,-99.99,,,-99.99,,2013-02-20 01:52:00,
2013-02-19 18:02:00,46.0,-99.9,29.89,NW,323,7.0,10.0,-999,-99.99,,,-99.99,,2013-02-20 02:02:00,
2013-02-19 18:11:00,46.0,-99.9,29.89,NW,320,10.0,13.0,-999,-99.99,,,-99.99,,2013-02-20 02:11:00,
2013-02-19 18:22:00,46.0,-99.9,29.90,NNW,339,9.0,13.0,-999,-99.99,,,-99.99,,2013-02-20 02:22:00,
2013-02-19 18:32:00,46.0,-99.9,29.90,NW,320,7.0,10.0,-999,-99.99,,,-99.99,,2013-02-20 02:32:00,
2013-02-19 18:42:00,46.0,-99.9,29.91,NNW,335,4.0,8.0,-999,-99.99,,,-99.99,,2013-02-20 02:42:00,
2013-02-19 18:52:00,46.0,-99.9,29.91,NNW,334,4.0,7.0,-999,-99.99,,,-99.99,,2013-02-20 02:52:00,
2013-02-19 19:02:00,45.0,-99.9,29.91,NNW,327,8.0,11.0,-999,-99.99,,,-99.99,,2013-02-20 03:02:00,
2013-02-19 19:12:00,45.0,-99.9,29.91,NNW,330,5.0,9.0,-999,-99.99,,,-99.99,,2013-02-20 03:12:00,
2013-02-19 19:22:00,45.0,-99.9,29.92,NW,317,6.0,7.0,-999,-99.99,,,-99.99,,2013-02-20 03:22:00,
2013-02-19 19:32:00,45.0,-99.9,29.93,NW,307,5.0,8.0,-999,-99.99,,,-99.99,,2013-02-20 03:32:00,
2013-02-19 19:42:00,45.0,-99.9,29.93,NW,306,5.0,8.0,-999,-99.99,,,-99.99,,2013-02-20 03:42:00,
2013-02-19 19:52:00,44.0,-99.9,29.93,NW,308,6.0,8.0,-999,-99.99,,,-99.99,,2013-02-20 03:52:00,
2013-02-19 20:02:00,44.0,-99.9,29.94,NW,313,6.0,8.0,-999,-99.99,,,-99.99,,2013-02-20 04:02:00,
2013-02-19 20:11:00,44.0,-99.9,29.94,NW,305,5.0,7.0,-999,-99.99,,,-99.99,,2013-02-20 04:11:00,
2013-02-19 20:22:00,44.0,-99.9,29.94,NW,326,3.0,5.0,-999,-99.99,,,-99.99,,2013-02-20 04:22:00,
2013-02-19 20:32:00,44.0,-99.9,29.94,NNW,332,3.0,6.0,-999,-99.99,,,-99.99,,2013-02-20 04:32:00,
2013-02-19 20:42:00,44.0,-99.9,29.95,NW,314,5.0,8.0,-999,-99.99,,,-99.99,,2013-02-20 04:42:00,
2013-02-19 20:52:00,44.0,-99.9,29.95,NW,309,5.0,7.0,-999,-99.99,,,-99.99,,2013-02-20 04:52:00,
2013-02-19 21:02:00,44.0,-99.9,29.96,NW,316,4.0,6.0,-999,-99.99,,,-99.99,,2013-02-20 05:02:00,
2013-02-19 21:12:00,44.0,-99.9,29.96,NW,324,2.0,5.0,-999,-99.99,,,-99.99,,2013-02-20 05:12:00,
2013-02-19 21:22:00,44.0,-99.9,29.96,NW,318,3.0,5.0,-999,-99.99,,,-99.99,,2013-02-20 05:22:00,
2013-02-19 21:32:00,44.0,-99.9,29.97,NW,313,5.0,6.0,-999,-99.99,,,-99.99,,2013-02-20 05:32:00,
2013-02-19 21:43:00,44.0,-99.9,29.97,NNW,337,4.0,5.0,-999,-99.99,,,-99.99,,2013-02-20 05:43:00,
2013-02-19 21:52:00,44.0,-99.9,29.97,NNW,332,4.0,8.0,-999,-99.99,,,-99.99,,2013-02-20 05:52:00,
2013-02-19 22:02:00,44.0,-99.9,29.97,NW,323,3.0,6.0,-999,-99.99,,,-99.99,,2013-02-20 06:02:00,
2013-02-19 22:11:00,44.0,-99.9,29.98,NNW,336,3.0,5.0,-999,-99.99,,,-99.99,,2013-02-20 06:11:00,
2013-02-19 22:22:00,44.0,-99.9,29.98,NNW,327,3.0,5.0,-999,-99.99,,,-99.99,,2013-02-20 06:22:00,
2013-02-19 22:32:00,44.0,-99.9,29.98,NNW,341,0.0,4.0,-999,-99.99,,,-99.99,,2013-02-20 06:32:00,
2013-02-19 22:42:00,44.0,-99.9,29.98,WNW,292,1.0,3.0,-999,-99.99,,,-99.99,,2013-02-20 06:42:00,
2013-02-19 22:52:00,44.0,-99.9,29.98,WNW,292,1.0,3.0,-999,-99.99,,,-99.99,,2013-02-20 06:52:00,
2013-02-19 23:11:00,44.0,-99.9,30.00,ESE,122,1.0,4.0,-999,-99.99,,,-99.99,,2013-02-20 07:11:00,
2013-02-19 23:21:00,43.0,-99.9,30.00,SE,141,3.0,4.0,-999,-99.99,,,-99.99,,2013-02-20 07:21:00,
2013-02-19 23:32:00,43.0,-99.9,30.00,SE,130,2.0,4.0,-999,-99.99,,,-99.99,,2013-02-20 07:32:00,
2013-02-19 23:42:00,42.0,-99.9,30.01,SSW,201,4.0,5.0,-999,-99.99,,,-99.99,,2013-02-20 07:42:00,
2013-02-19 23:52:00,42.0,-99.9,30.01,South,180,2.0,4.0,-999,-99.99,,,-99.99,,2013-02-20 07:52:00,